Showing default

QPS-SAR-5 TSUKUYOMI-I, 58578

Orbit data source: Space-Track

QPS-SAR-5 TSUKUYOMI-I, 58578 is a payload satellite owned by QPS Labs (JP) in LEO that was launched on Fri, 15 Dec 2023 UTC via an ELECTRON launch vehicle from the Rocket Lab Launch Complex (RLLC). Payload-class satellites include a variety of spacecraft equipped with specific instruments for various scientific and technological missions. These include communications satellites like Starlink; space stations such as the ISS; scientific satellites like the Hubble; Earth observation satellites from companies like Planet Labs, Umbra, and HawkEye 360; GPS; miniature CubeSats for education and research; and military/defense satellites.

Loading next visibility...
Identifier
58578, 2023-196A
Orbit
LEO
Country
Flag of JPJP / JPN
Related business
Manufacturer
QPS Labs
Mission
Operational Commercial Radar Imaging
Bus & Motor
QSAT, Unknown motor
Mass
~120 kg wet, ~100 kg dry
Launch date (UTC)
2023-12-15 (3 years ago)
Launch vehicle
ELECTRON
Launch site
Rocket Lab Launch Complex (RLLC)
Object type
Payload
Rocket body
Debris
Shape & HBR
Hex Cyl + 2 Pan + 1 Dish, 1.8 m
Radar Cross Section
1.179 m², Large (>1 m²)

Expand to show TLE details & history
Last TLE update: 21 hours ago

TLE from 21 hours ago
0 QPS-SAR-5 TSUKUYOMI-I
1 58578U 23196A   26172.56595094  .00009850  00000-0  41978-3 0  9999
2 58578  42.0112 350.9591 0027139 309.3920  50.4511 15.22671001138918
Epoch: 2026-06-21T13:34Z
TLE epoch observation values (Epoch: 2026-06-21T13:34:58.161Z)
Latitude
-0.00002°
Longitude
-122.54765°
Altitude
485.604 km
Speed
7.631 km/s
True Right ascension
23h 23m 50s
True Declination
0° 00' 00"
Sunlit
Object was in daylight at epoch
Visualization orbit readout
Latitude
Unknown
Longitude
Unknown
Altitude
Unknown
Speed
Unknown
Apparent Right ascension
Unknown
Apparent Declination
Unknown
Sunlit
N/A
Visualization observer readout
Local Sidereal Time
21:33:58
Azimuth
Unknown
Elevation
Unknown
Doppler factor
Unknown
Orbital elements
Apogee altitude
518.56 km
Perigee altitude
481.228 km
Semi-major axis
6,878.031 km
Eccentricity
0.00271
Inclination
42.0112°
RAAN
350.9591°
Arg. of periapsis
309.392°
True anomaly
50.69142°
Mean anomaly
50.4511°
Eccentric anomaly
50.57121°
Mean motion
3.80493 °/min
Orbital period
94.61 mins
BSTAR
0.00041978
Loading maneuver chart data...
Computing Atmospheric mass density...
Loading historical data...
Loading historical data...
Loading historical data...
Loading historical data...
Loading historical data...
Loading historical data...
Loading historical data...
Other satellites on launch #196 in the year 2023 (2023-12-15 UTC)

Documentation

Showing up to 5 results
|